Total_Precipitation_Accumulation
2.35 1.94 1.34 0.82 0.67 0.62 0.56 0.66 0.75 0.74 0.74 0.82 0.87 0.74 0.71 0.64 0.63 0.68 0.66 0.71 0.86 1.08 1.31 1.48 1.70 1.98 2.21 2.27 2.33 2.53 2.77 2.92 3.12 3.35 3.40 3.29 3.27 3.28 3.23 3.05 2.88 2.72 2.57 2.48
2.00 1.41 0.68 0.49 0.51 0.54 0.57 0.67 0.70 0.69 0.68 0.80 0.86 0.79 0.72 0.73 0.69 0.69 0.66 0.67 0.81 1.01 1.19 1.38 1.60 1.84 2.03 2.20 2.28 2.47 2.69 2.80 2.84 3.04 3.30 3.27 3.30 3.38 3.46 3.40 3.22 3.01 2.88 2.79
1.52 0.91 0.52 0.57 0.66 0.63 0.53 0.56 0.60 0.66 0.70 0.85 0.95 0.98 0.76 0.73 0.68 0.62 0.60 0.65 0.80 0.99 1.11 1.25 1.45 1.64 1.81 2.07 2.29 2.40 2.57 2.73 2.78 3.06 3.57 3.62 3.60 3.55 3.56 3.54 3.47 3.28 3.08 2.98
1.31 0.76 0.59 0.64 0.62 0.60 0.57 0.40 0.51 0.63 0.89 1.09 1.05 1.32 0.86 0.78 0.74 0.64 0.60 0.64 0.80 0.94 1.00 1.10 1.34 1.50 1.62 1.81 2.11 2.38 2.54 2.76 2.98 3.24 3.53 3.63 3.46 3.38 3.31 3.27 3.36 3.42 3.21 3.08
1.27 0.86 0.72 0.68 0.55 0.54 0.53 0.41 0.54 0.66 0.86 1.07 0.87 1.07 0.92 0.73 0.77 0.76 0.71 0.72 0.85 0.96 1.03 1.09 1.29 1.43 1.50 1.63 1.85 2.10 2.39 2.58 2.90 3.18 3.37 3.60 3.42 3.16 3.23 3.27 3.22 3.30 3.29 3.13
0.89 0.74 0.79 0.67 0.48 0.52 0.56 0.59 0.74 0.88 1.16 1.31 0.76 0.84 0.92 0.82 0.81 0.79 0.78 0.84 0.95 1.03 1.06 1.15 1.29 1.30 1.34 1.47 1.63 1.79 2.03 2.19 2.37 2.66 3.00 3.29 3.35 3.23 3.17 3.14 3.17 3.14 3.13 3.08
1.07 0.87 0.72 0.64 0.69 0.67 0.73 1.10 1.52 1.68 1.59 1.07 0.58 0.66 0.91 0.81 0.74 0.75 0.81 0.87 0.92 0.99 1.02 1.14 1.23 1.15 1.14 1.28 1.48 1.59 1.71 1.83 1.97 2.18 2.46 2.79 3.04 3.12 3.12 3.08 3.06 3.11 3.00 2.90
1.11 1.18 0.73 0.61 0.70 0.76 0.69 0.90 1.22 1.23 0.89 0.62 0.42 0.63 0.84 0.80 0.77 0.76 0.82 0.82 0.85 0.92 0.98 1.10 1.25 1.19 1.12 1.18 1.31 1.38 1.45 1.62 1.74 1.84 2.03 2.22 2.45 2.65 2.67 2.78 2.81 2.85 2.86 2.82
0.82 0.82 0.50 0.42 0.37 0.49 0.67 0.64 0.62 1.02 0.75 0.57 0.55 0.64 0.78 0.74 0.74 0.77 0.82 0.79 0.79 0.83 0.94 1.03 1.10 1.09 1.04 1.07 1.14 1.25 1.31 1.42 1.48 1.55 1.68 1.72 1.86 2.07 2.21 2.28 2.35 2.40 2.48 2.59
0.64 0.72 0.47 0.35 0.35 0.41 0.47 0.49 0.67 1.20 1.14 0.75 0.54 0.55 0.81 0.77 0.76 0.74 0.72 0.71 0.75 0.81 0.86 0.89 0.89 0.87 0.87 0.96 1.07 1.14 1.21 1.22 1.23 1.28 1.40 1.44 1.47 1.60 1.76 1.89 1.93 1.96 2.03 2.16
0.45 0.65 0.55 0.43 0.50 0.44 0.40 0.56 0.73 0.95 0.90 0.82 0.59 0.61 0.66 0.68 0.70 0.70 0.66 0.67 0.70 0.73 0.70 0.70 0.70 0.72 0.76 0.81 0.87 0.95 1.02 1.08 1.10 1.09 1.16 1.24 1.29 1.37 1.52 1.66 1.71 1.79 1.82 1.85
0.43 0.65 0.58 0.37 0.26 0.20 0.28 0.42 0.66 1.08 0.88 0.69 0.63 0.60 0.51 0.52 0.53 0.55 0.55 0.56 0.56 0.57 0.56 0.59 0.63 0.65 0.70 0.71 0.72 0.83 0.92 1.00 1.00 0.96 1.00 1.07 1.14 1.20 1.30 1.39 1.48 1.58 1.62 1.66
0.68 0.93 0.86 0.60 0.42 0.32 0.37 0.38 0.48 0.82 1.14 0.83 0.72 0.63 0.46 0.42 0.41 0.41 0.45 0.48 0.47 0.47 0.46 0.48 0.52 0.57 0.60 0.66 0.68 0.75 0.80 0.88 0.90 0.89 0.94 0.98 1.00 1.04 1.09 1.13 1.23 1.28 1.33 1.43
0.89 0.97 0.74 0.61 0.44 0.47 0.48 0.32 0.39 1.02 1.43 0.72 0.39 0.44 0.40 0.38 0.39 0.40 0.44 0.44 0.42 0.42 0.40 0.40 0.44 0.47 0.51 0.59 0.63 0.64 0.66 0.74 0.84 0.86 0.87 0.92 0.90 0.91 0.96 0.97 1.02 1.06 1.09 1.11
0.79 0.85 0.41 0.27 0.25 0.39 0.43 0.33 0.36 0.65 0.66 0.68 0.38 0.32 0.37 0.38 0.41 0.44 0.43 0.39 0.38 0.39 0.38 0.36 0.41 0.43 0.47 0.54 0.57 0.57 0.61 0.68 0.76 0.84 0.81 0.81 0.84 0.84 0.85 0.86 0.86 0.87 0.90 0.90
0.70 0.76 0.43 0.31 0.19 0.29 0.37 0.25 0.24 0.29 0.34 0.39 0.31 0.34 0.33 0.36 0.39 0.41 0.41 0.39 0.43 0.43 0.43 0.39 0.38 0.40 0.43 0.51 0.61 0.64 0.69 0.75 0.73 0.78 0.78 0.75 0.78 0.81 0.83 0.80 0.75 0.79 0.85 0.90
0.68 0.76 0.83 0.50 0.20 0.43 0.52 0.32 0.26 0.25 0.30 0.37 0.44 0.43 0.35 0.40 0.50 0.56 0.49 0.39 0.42 0.47 0.50 0.45 0.42 0.44 0.47 0.57 0.76 0.87 0.89 0.89 0.86 0.83 0.80 0.76 0.76 0.78 0.81 0.84 0.84 0.84 0.86 0.92
0.63 0.78 1.16 0.84 0.50 0.73 0.47 0.25 0.22 0.25 0.34 0.40 0.39 0.35 0.37 0.44 0.50 0.52 0.45 0.39 0.42 0.46 0.53 0.52 0.51 0.55 0.57 0.65 0.78 0.91 0.97 1.00 1.00 0.99 0.96 0.90 0.91 0.95 0.99 1.01 1.05 1.04 1.03 1.06
0.41 0.84 1.42 1.24 0.84 0.45 0.26 0.19 0.28 0.36 0.39 0.39 0.37 0.32 0.30 0.31 0.36 0.39 0.37 0.37 0.44 0.50 0.54 0.55 0.55 0.60 0.67 0.72 0.77 0.89 1.03 1.05 1.07 1.18 1.26 1.23 1.20 1.23 1.27 1.30 1.33 1.32 1.31 1.31
0.42 0.84 1.61 1.49 1.17 0.54 0.28 0.15 0.23 0.36 0.53 0.32 0.32 0.34 0.31 0.33 0.46 0.42 0.37 0.39 0.41 0.45 0.48 0.51 0.52 0.56 0.69 0.81 0.90 1.03 1.17 1.22 1.24 1.33 1.42 1.39 1.36 1.36 1.36 1.35 1.32 1.29 1.26 1.27
0.63 1.15 1.52 1.24 1.14 0.53 0.28 0.16 0.24 0.62 0.67 0.34 0.32 0.36 0.39 0.49 0.56 0.44 0.39 0.42 0.47 0.49 0.49 0.52 0.57 0.68 0.86 1.01 1.15 1.33 1.38 1.39 1.32 1.32 1.31 1.26 1.20 1.14 1.11 1.09 1.04 1.01 0.98 0.98
0.49 0.79 0.90 1.00 1.28 0.72 0.27 0.25 0.51 0.66 0.40 0.30 0.27 0.32 0.39 0.39 0.35 0.34 0.34 0.37 0.46 0.51 0.52 0.56 0.66 0.77 0.88 0.99 1.13 1.22 1.21 1.16 1.10 1.03 1.00 0.96 0.92 0.89 0.87 0.89 0.88 0.83 0.82 0.83
0.46 0.62 0.74 0.81 0.79 0.50 0.36 0.44 0.49 0.43 0.38 0.31 0.33 0.33 0.34 0.34 0.30 0.30 0.31 0.31 0.36 0.42 0.45 0.50 0.55 0.59 0.64 0.71 0.81 0.87 0.88 0.83 0.82 0.77 0.72 0.72 0.72 0.74 0.74 0.76 0.80 0.79 0.77 0.79
0.46 0.45 0.59 0.64 0.51 0.41 0.40 0.36 0.35 0.34 0.38 0.35 0.34 0.33 0.32 0.34 0.29 0.29 0.31 0.31 0.33 0.36 0.40 0.46 0.47 0.47 0.52 0.55 0.60 0.67 0.73 0.75 0.74 0.71 0.68 0.65 0.66 0.71 0.75 0.79 0.81 0.83 0.84 0.86
0.43 0.46 0.58 0.59 0.44 0.42 0.40 0.37 0.38 0.36 0.31 0.28 0.26 0.25 0.29 0.33 0.31 0.31 0.36 0.36 0.37 0.40 0.44 0.47 0.49 0.50 0.53 0.52 0.53 0.59 0.67 0.72 0.73 0.72 0.70 0.70 0.67 0.68 0.76 0.81 0.87 0.93 0.94 1.00
0.39 0.52 0.71 0.65 0.43 0.52 0.47 0.39 0.37 0.36 0.30 0.27 0.27 0.27 0.26 0.30 0.35 0.34 0.35 0.38 0.40 0.44 0.47 0.47 0.47 0.49 0.50 0.51 0.51 0.55 0.64 0.71 0.76 0.76 0.74 0.74 0.75 0.74 0.75 0.80 0.89 0.99 1.04 1.06